Time,TemperatureF,DewpointF,PressureIn,WindDirection,WindDirectionDegrees,WindSpeedMPH,WindSpeedGustMPH,Humidity,HourlyPrecipIn,Conditions,Clouds,dailyrainin,SoftwareType,DateUTC
2013-01-20 00:14:00,46.4,30.7,29.68,SSW,202,4.7,-999.0,54,-99.99,,,0.00,Acu-Link.com,2013-01-20 05:14:00,
2013-01-20 00:29:00,44.6,29.9,29.68,SSW,202,4.0,-999.0,56,-99.99,,,0.00,Acu-Link.com,2013-01-20 05:29:00,
2013-01-20 00:44:00,44.6,30.7,29.67,WSW,247,2.7,-999.0,58,-99.99,,,0.00,Acu-Link.com,2013-01-20 05:44:00,
2013-01-20 01:00:00,44.6,31.6,29.67,ESE,112,3.1,-999.0,60,-99.99,,,0.00,Acu-Link.com,2013-01-20 06:00:00,
2013-01-20 01:15:00,44.6,32.0,29.66,SSW,202,4.7,-999.0,61,-99.99,,,0.00,Acu-Link.com,2013-01-20 06:15:00,
2013-01-20 01:30:00,44.6,32.8,29.66,SSW,202,3.1,-999.0,63,-99.99,,,0.00,Acu-Link.com,2013-01-20 06:30:00,
2013-01-20 01:46:00,44.6,33.2,29.66,WSW,247,4.7,-999.0,64,-99.99,,,0.00,Acu-Link.com,2013-01-20 06:46:00,
2013-01-20 02:01:00,44.6,33.6,29.66,West,270,4.7,-999.0,65,-99.99,,,0.00,Acu-Link.com,2013-01-20 07:01:00,
2013-01-20 02:16:00,44.6,34.0,29.66,WSW,247,6.7,-999.0,66,-99.99,,,0.00,Acu-Link.com,2013-01-20 07:16:00,
2013-01-20 02:32:00,44.6,34.0,29.67,WSW,247,3.6,-999.0,66,-99.99,,,0.00,Acu-Link.com,2013-01-20 07:32:00,
2013-01-20 02:47:00,44.6,34.3,29.67,SSE,157,5.6,-999.0,67,-99.99,,,0.00,Acu-Link.com,2013-01-20 07:47:00,
2013-01-20 03:02:00,44.6,34.3,29.70,West,270,9.8,-999.0,67,-99.99,,,0.00,Acu-Link.com,2013-01-20 08:02:00,
2013-01-20 03:17:00,42.8,31.5,29.69,South,180,5.1,-999.0,64,-99.99,,,0.00,Acu-Link.com,2013-01-20 08:17:00,
2013-01-20 03:33:00,42.8,29.1,29.70,SSE,157,19.0,-999.0,58,-99.99,,,0.00,Acu-Link.com,2013-01-20 08:33:00,
2013-01-20 03:48:00,42.8,29.1,29.70,West,270,23.3,-999.0,58,-99.99,,,0.00,Acu-Link.com,2013-01-20 08:48:00,
2013-01-20 04:15:00,41.0,26.9,29.73,West,270,5.1,-999.0,57,-99.99,,,0.00,Acu-Link.com,2013-01-20 09:15:00,
2013-01-20 04:30:00,41.0,25.2,29.73,SSE,157,10.7,-999.0,53,-99.99,,,0.00,Acu-Link.com,2013-01-20 09:30:00,
2013-01-20 04:45:00,39.2,23.5,29.75,SW,225,8.3,-999.0,53,-99.99,,,0.00,Acu-Link.com,2013-01-20 09:45:00,
2013-01-20 05:00:00,37.4,22.3,29.77,West,270,8.3,-999.0,54,-99.99,,,0.00,Acu-Link.com,2013-01-20 10:00:00,
2013-01-20 05:16:00,37.4,23.2,29.77,NE,45,6.7,-999.0,56,-99.99,,,0.00,Acu-Link.com,2013-01-20 10:16:00,
2013-01-20 05:31:00,37.4,23.6,29.78,West,270,9.2,-999.0,57,-99.99,,,0.00,Acu-Link.com,2013-01-20 10:31:00,
2013-01-20 05:46:00,33.8,18.9,29.80,WSW,247,12.3,-999.0,54,-99.99,,,0.00,Acu-Link.com,2013-01-20 10:46:00,
2013-01-20 06:01:00,32.0,16.8,29.84,WNW,292,11.9,-999.0,53,-99.99,,,0.00,Acu-Link.com,2013-01-20 11:01:00,
2013-01-20 06:17:00,32.0,18.1,29.85,West,270,13.0,-999.0,56,-99.99,,,0.00,Acu-Link.com,2013-01-20 11:17:00,
2013-01-20 06:32:00,30.2,17.2,29.88,NW,315,4.7,-999.0,58,-99.99,,,0.00,Acu-Link.com,2013-01-20 11:32:00,
2013-01-20 06:47:00,30.2,16.4,29.88,West,270,9.2,-999.0,56,-99.99,,,0.00,Acu-Link.com,2013-01-20 11:47:00,
2013-01-20 07:02:00,30.2,17.2,29.91,West,270,5.1,-999.0,58,-99.99,,,0.00,Acu-Link.com,2013-01-20 12:02:00,
2013-01-20 07:18:00,28.4,15.5,29.91,SW,225,7.2,-999.0,58,-99.99,,,0.00,Acu-Link.com,2013-01-20 12:18:00,
2013-01-20 07:33:00,28.4,15.5,29.93,SW,225,7.8,-999.0,58,-99.99,,,0.00,Acu-Link.com,2013-01-20 12:33:00,
2013-01-20 07:48:00,28.4,14.7,29.94,NNW,337,8.3,-999.0,56,-99.99,,,0.00,Acu-Link.com,2013-01-20 12:48:00,
2013-01-20 08:03:00,28.4,15.1,29.95,West,270,5.1,-999.0,57,-99.99,,,0.00,Acu-Link.com,2013-01-20 13:03:00,
2013-01-20 08:19:00,28.4,15.1,29.97,West,270,16.6,-999.0,57,-99.99,,,0.00,Acu-Link.com,2013-01-20 13:19:00,
2013-01-20 08:34:00,28.4,15.9,29.98,NW,315,8.7,-999.0,59,-99.99,,,0.00,Acu-Link.com,2013-01-20 13:34:00,
2013-01-20 08:49:00,28.4,17.8,30.00,WNW,292,6.7,-999.0,64,-99.99,,,0.00,Acu-Link.com,2013-01-20 13:49:00,
2013-01-20 09:05:00,28.4,15.9,30.01,WNW,292,12.3,-999.0,59,-99.99,,,0.00,Acu-Link.com,2013-01-20 14:05:00,
2013-01-20 09:20:00,26.6,15.4,30.03,SW,225,9.8,-999.0,62,-99.99,,,0.00,Acu-Link.com,2013-01-20 14:20:00,
2013-01-20 09:35:00,26.6,15.4,30.04,West,270,9.2,-999.0,62,-99.99,,,0.00,Acu-Link.com,2013-01-20 14:35:00,
2013-01-20 09:50:00,26.6,14.6,30.06,SSW,202,9.2,-999.0,60,-99.99,,,0.00,Acu-Link.com,2013-01-20 14:50:00,
2013-01-20 10:06:00,24.8,13.3,30.07,WSW,247,10.3,-999.0,61,-99.99,,,0.00,Acu-Link.com,2013-01-20 15:06:00,
2013-01-20 10:21:00,24.8,14.4,30.07,SSW,202,7.2,-999.0,64,-99.99,,,0.00,Acu-Link.com,2013-01-20 15:21:00,
2013-01-20 10:36:00,23.0,15.0,30.09,SW,225,6.7,-999.0,71,-99.99,,,0.00,Acu-Link.com,2013-01-20 15:36:00,
2013-01-20 10:51:00,23.0,16.0,30.11,West,270,6.7,-999.0,74,-99.99,,,0.00,Acu-Link.com,2013-01-20 15:51:00,
2013-01-20 11:07:00,23.0,16.6,30.12,West,270,5.6,-999.0,76,-99.99,,,0.00,Acu-Link.com,2013-01-20 16:07:00,
2013-01-20 11:22:00,23.0,16.9,30.12,WNW,292,4.7,-999.0,77,-99.99,,,0.00,Acu-Link.com,2013-01-20 16:22:00,
2013-01-20 11:37:00,23.0,16.9,30.11,West,270,4.0,-999.0,77,-99.99,,,0.00,Acu-Link.com,2013-01-20 16:37:00,
2013-01-20 11:52:00,23.0,17.8,30.12,WNW,292,2.0,-999.0,80,-99.99,,,0.00,Acu-Link.com,2013-01-20 16:52:00,
2013-01-20 12:08:00,23.0,11.2,30.12,SSW,202,4.7,-999.0,60,-99.99,,,0.00,Acu-Link.com,2013-01-20 17:08:00,
2013-01-20 12:23:00,24.8,12.1,30.12,West,270,9.8,-999.0,58,-99.99,,,0.00,Acu-Link.com,2013-01-20 17:23:00,
2013-01-20 12:38:00,23.0,10.8,30.12,North,0,3.6,-999.0,59,-99.99,,,0.00,Acu-Link.com,2013-01-20 17:38:00,
2013-01-20 12:54:00,24.8,11.8,30.12,WNW,292,9.8,-999.0,57,-99.99,,,0.00,Acu-Link.com,2013-01-20 17:54:00,
2013-01-20 13:09:00,24.8,12.9,30.12,West,270,6.3,-999.0,60,-99.99,,,0.00,Acu-Link.com,2013-01-20 18:09:00,
2013-01-20 13:24:00,26.6,13.0,30.12,West,270,4.7,-999.0,56,-99.99,,,0.00,Acu-Link.com,2013-01-20 18:24:00,
2013-01-20 13:40:00,26.6,13.0,30.11,West,270,8.7,-999.0,56,-99.99,,,0.00,Acu-Link.com,2013-01-20 18:40:00,
2013-01-20 13:55:00,24.8,11.4,30.11,NW,315,2.7,-999.0,56,-99.99,,,0.00,Acu-Link.com,2013-01-20 18:55:00,
2013-01-20 14:10:00,24.8,11.4,30.11,West,270,3.6,-999.0,56,-99.99,,,0.00,Acu-Link.com,2013-01-20 19:10:00,
2013-01-20 14:25:00,26.6,13.0,30.10,WNW,292,3.1,-999.0,56,-99.99,,,0.00,Acu-Link.com,2013-01-20 19:25:00,
2013-01-20 14:41:00,28.4,13.9,30.10,North,0,5.1,-999.0,54,-99.99,,,0.00,Acu-Link.com,2013-01-20 19:41:00,
2013-01-20 14:56:00,26.6,12.2,30.10,SW,225,3.6,-999.0,54,-99.99,,,0.00,Acu-Link.com,2013-01-20 19:56:00,
2013-01-20 15:11:00,26.6,11.8,30.09,West,270,3.6,-999.0,53,-99.99,,,0.00,Acu-Link.com,2013-01-20 20:11:00,
2013-01-20 15:26:00,26.6,11.8,30.11,SW,225,3.6,-999.0,53,-99.99,,,0.00,Acu-Link.com,2013-01-20 20:26:00,
2013-01-20 15:41:00,26.6,12.2,30.12,North,0,2.7,-999.0,54,-99.99,,,0.00,Acu-Link.com,2013-01-20 20:41:00,
2013-01-20 15:57:00,26.6,12.2,30.12,WNW,292,2.7,-999.0,54,-99.99,,,0.00,Acu-Link.com,2013-01-20 20:57:00,
2013-01-20 16:12:00,26.6,13.0,30.12,SSW,202,3.1,-999.0,56,-99.99,,,0.00,Acu-Link.com,2013-01-20 21:12:00,
2013-01-20 16:27:00,26.6,13.0,30.12,NW,315,3.1,-999.0,56,-99.99,,,0.00,Acu-Link.com,2013-01-20 21:27:00,
2013-01-20 16:43:00,26.6,13.0,30.13,SSW,202,3.6,-999.0,56,-99.99,,,0.00,Acu-Link.com,2013-01-20 21:43:00,
2013-01-20 16:58:00,26.6,14.2,30.13,ENE,67,4.0,-999.0,59,-99.99,,,0.00,Acu-Link.com,2013-01-20 21:58:00,
2013-01-20 17:13:00,24.8,12.1,30.14,West,270,2.7,-999.0,58,-99.99,,,0.00,Acu-Link.com,2013-01-20 22:13:00,
2013-01-20 17:29:00,24.8,12.9,30.14,West,270,1.6,-999.0,60,-99.99,,,0.00,Acu-Link.com,2013-01-20 22:29:00,
2013-01-20 17:44:00,24.8,12.5,30.13,West,270,4.7,-999.0,59,-99.99,,,0.00,Acu-Link.com,2013-01-20 22:44:00,
2013-01-20 17:59:00,24.8,12.1,30.13,West,270,5.6,-999.0,58,-99.99,,,0.00,Acu-Link.com,2013-01-20 22:59:00,
2013-01-20 18:14:00,24.8,12.9,30.15,NW,315,4.0,-999.0,60,-99.99,,,0.00,Acu-Link.com,2013-01-20 23:14:00,
2013-01-20 18:29:00,24.8,12.9,30.14,WNW,292,4.7,-999.0,60,-99.99,,,0.00,Acu-Link.com,2013-01-20 23:29:00,
2013-01-20 18:45:00,24.8,12.9,30.15,West,270,2.7,-999.0,60,-99.99,,,0.00,Acu-Link.com,2013-01-20 23:45:00,
2013-01-20 19:00:00,23.0,11.6,30.15,NNW,337,4.7,-999.0,61,-99.99,,,0.00,Acu-Link.com,2013-01-21 00:00:00,
2013-01-20 19:15:00,23.0,11.6,30.15,WNW,292,5.6,-999.0,61,-99.99,,,0.00,Acu-Link.com,2013-01-21 00:15:00,
2013-01-20 19:31:00,23.0,11.9,30.14,WNW,292,5.6,-999.0,62,-99.99,,,0.00,Acu-Link.com,2013-01-21 00:31:00,
2013-01-20 19:46:00,23.0,12.3,30.15,WSW,247,3.6,-999.0,63,-99.99,,,0.00,Acu-Link.com,2013-01-21 00:46:00,
2013-01-20 20:32:00,23.0,12.3,30.15,West,270,4.0,-999.0,63,-99.99,,,0.00,Acu-Link.com,2013-01-21 01:32:00,
2013-01-20 21:17:00,23.0,13.4,30.15,North,0,4.0,-999.0,66,-99.99,,,0.00,Acu-Link.com,2013-01-21 02:17:00,
2013-01-20 21:33:00,23.0,12.3,30.14,WNW,292,5.1,-999.0,63,-99.99,,,0.00,Acu-Link.com,2013-01-21 02:33:00,
2013-01-20 21:48:00,21.2,11.3,30.14,WNW,292,4.0,-999.0,65,-99.99,,,0.00,Acu-Link.com,2013-01-21 02:48:00,
2013-01-20 22:03:00,21.2,11.3,30.15,ESE,112,6.3,-999.0,65,-99.99,,,0.00,Acu-Link.com,2013-01-21 03:03:00,
2013-01-20 22:18:00,21.2,11.6,30.14,WNW,292,2.0,-999.0,66,-99.99,,,0.00,Acu-Link.com,2013-01-21 03:18:00,
2013-01-20 22:33:00,21.2,11.3,30.14,SSW,202,3.6,-999.0,65,-99.99,,,0.00,Acu-Link.com,2013-01-21 03:33:00,
2013-01-20 22:49:00,21.2,11.6,30.14,NNE,22,3.6,-999.0,66,-99.99,,,0.00,Acu-Link.com,2013-01-21 03:49:00,
2013-01-20 23:04:00,19.4,10.9,30.13,WNW,292,4.0,-999.0,69,-99.99,,,0.00,Acu-Link.com,2013-01-21 04:04:00,
2013-01-20 23:19:00,19.4,11.2,30.13,NNW,337,3.1,-999.0,70,-99.99,,,0.00,Acu-Link.com,2013-01-21 04:19:00,
2013-01-20 23:34:00,19.4,11.2,30.13,ESE,112,1.6,-999.0,70,-99.99,,,0.00,Acu-Link.com,2013-01-21 04:34:00,
2013-01-20 23:49:00,19.4,11.9,30.13,SE,135,2.7,-999.0,72,-99.99,,,0.00,Acu-Link.com,2013-01-21 04:49:00,